• In Belarus
  • List of Countries
  • For 7 days
  • Water Temperature
  • Weather Map
  • Weather Widgets
  • user-avatar
    Login

    Hourly Weather Mugdab

    Today, 13 November, Wednesday

    Time Temperature Precipitation Wind Pressure Humidity
    00:00 +7°C° 0 mm 1 mps 647 mmHg 39%
    01:00 +7°C° 0 mm 1 mps 647 mmHg 38%
    02:00 +6°C° 0 mm 1 mps 646 mmHg 37%
    03:00 +6°C° 0 mm 1 mps 646 mmHg 37%
    04:00 +6°C° 0 mm 1 mps 646 mmHg 37%
    05:00 +6°C° 0 mm 1 mps 646 mmHg 37%
    06:00 +6°C° 0 mm 1 mps 646 mmHg 37%
    07:00 +7°C° 0 mm 1 mps 647 mmHg 36%
    08:00 +7°C° 0 mm 0 mps 648 mmHg 35%
    09:00 +8°C° 0 mm 0 mps 648 mmHg 35%
    10:00 +9°C° 0 mm 0 mps 648 mmHg 34%
    11:00 +11°C° 0 mm 1 mps 648 mmHg 33%
    12:00 +11°C° 0 mm 1 mps 648 mmHg 32%
    13:00 +11°C° 0 mm 1 mps 648 mmHg 35%
    14:00 +11°C° 0 mm 1 mps 648 mmHg 37%
    15:00 +11°C° 0 mm 1 mps 648 mmHg 40%
    16:00 +10°C° 0 mm 1 mps 647 mmHg 44%
    17:00 +7°C° 0 mm 0 mps 647 mmHg 49%
    18:00 +6°C° 0 mm 0 mps 646 mmHg 54%
    19:00 +5°C° 0 mm 0 mps 646 mmHg 54%
    20:00 +5°C° 0 mm 0 mps 646 mmHg 53%
    21:00 +5°C° 0 mm 0 mps 647 mmHg 53%
    22:00 +6°C° 0 mm 1 mps 646 mmHg 50%
    23:00 +6°C° 0 mm 1 mps 646 mmHg 48%

    Tomorrow, 14 November, Thursday

    Time Temperature Precipitation Wind Pressure Humidity
    00:00 +5°C° 0 mm 1 mps 646 mmHg 45%
    01:00 +5°C° 0 mm 1 mps 646 mmHg 44%
    02:00 +5°C° 0 mm 1 mps 646 mmHg 43%
    03:00 +4°C° 0 mm 0 mps 646 mmHg 42%
    04:00 +4°C° 0 mm 0 mps 646 mmHg 41%
    05:00 +3°C° 0 mm 0 mps 645 mmHg 41%
    06:00 +3°C° 0 mm 0 mps 645 mmHg 41%
    07:00 +4°C° 0 mm 0 mps 646 mmHg 41%
    08:00 +6°C° 0 mm 1 mps 647 mmHg 40%
    09:00 +8°C° 0 mm 1 mps 648 mmHg 40%
    10:00 +9°C° 0 mm 1 mps 648 mmHg 39%
    11:00 +10°C° 0 mm 1 mps 648 mmHg 38%
    12:00 +9°C° 0 mm 2 mps 648 mmHg 37%
    13:00 +9°C° 0 mm 2 mps 648 mmHg 42%
    14:00 +10°C° 0 mm 1 mps 648 mmHg 47%
    15:00 +9°C° 0 mm 1 mps 647 mmHg 52%
    16:00 +8°C° 0 mm 1 mps 647 mmHg 57%
    17:00 +6°C° 0 mm 1 mps 647 mmHg 63%
    18:00 +5°C° 0 mm 1 mps 647 mmHg 68%
    19:00 +3°C° 0 mm 0 mps 647 mmHg 67%
    20:00 +3°C° 0 mm 0 mps 647 mmHg 66%
    21:00 +3°C° 0 mm 0 mps 647 mmHg 64%
    22:00 +3°C° 0 mm 0 mps 647 mmHg 62%
    23:00 +3°C° 0 mm 0 mps 647 mmHg 59%

    Day after tomorrow, 15 November, Friday

    Time Temperature Precipitation Wind Pressure Humidity
    00:00 +3°C° 0 mm 0 mps 647 mmHg 56%
    01:00 +3°C° 0 mm 0 mps 647 mmHg 58%
    02:00 +2°C° 0 mm 0 mps 647 mmHg 60%
    03:00 +3°C° 0 mm 1 mps 646 mmHg 62%
    04:00 +3°C° 0 mm 1 mps 646 mmHg 63%
    05:00 +2°C° 0 mm 1 mps 646 mmHg 64%
    06:00 +2°C° 0 mm 1 mps 646 mmHg 65%
    07:00 +3°C° 0 mm 1 mps 647 mmHg 64%
    08:00 +3°C° 0 mm 1 mps 647 mmHg 63%
    09:00 +4°C° 0 mm 1 mps 647 mmHg 62%
    10:00 +3°C° 0 mm 2 mps 648 mmHg 59%
    11:00 +4°C° 0 mm 2 mps 648 mmHg 55%
    12:00 +5°C° 0 mm 2 mps 648 mmHg 51%
    13:00 +5°C° 0 mm 2 mps 648 mmHg 53%
    14:00 +5°C° 0 mm 2 mps 648 mmHg 55%
    15:00 +4°C° 0 mm 2 mps 648 mmHg 56%
    16:00 +3°C° 0 mm 2 mps 647 mmHg 65%
    17:00 +3°C° 0 mm 1 mps 647 mmHg 74%
    18:00 +1°C° 0 mm 1 mps 647 mmHg 82%
    19:00 +1°C° 0 mm 1 mps 647 mmHg 82%
    20:00 +1°C° 0 mm 1 mps 647 mmHg 82%
    21:00 +1°C° 0 mm 1 mps 647 mmHg 82%
    22:00 0°C° 0 mm 1 mps 647 mmHg 82%
    23:00 0°C° 0 mm 1 mps 647 mmHg 81%

    16 November, Saturday

    Time Temperature Precipitation Wind Pressure Humidity
    00:00 0°C° 0 mm 1 mps 647 mmHg 80%
    01:00 0°C° 0 mm 1 mps 647 mmHg 80%
    02:00 0°C° 0 mm 1 mps 647 mmHg 79%
    03:00 0°C° 0 mm 1 mps 647 mmHg 78%
    04:00 -1°C° 0 mm 1 mps 647 mmHg 77%
    05:00 -1°C° 0 mm 1 mps 647 mmHg 77%
    06:00 -1°C° 0 mm 1 mps 647 mmHg 77%
    07:00 0°C° 0 mm 1 mps 647 mmHg 72%
    08:00 +1°C° 0 mm 1 mps 647 mmHg 67%
    09:00 +1°C° 0 mm 2 mps 648 mmHg 61%
    10:00 +1°C° 0 mm 2 mps 648 mmHg 57%
    11:00 +2°C° 0 mm 2 mps 648 mmHg 52%
    12:00 +3°C° 0 mm 2 mps 649 mmHg 47%
    13:00 +3°C° 0 mm 2 mps 648 mmHg 48%
    14:00 +3°C° 0 mm 2 mps 648 mmHg 50%
    15:00 +3°C° 0 mm 2 mps 648 mmHg 51%
    16:00 +2°C° 0 mm 2 mps 648 mmHg 59%
    17:00 +1°C° 0 mm 2 mps 648 mmHg 66%
    18:00 -1°C° 0 mm 2 mps 648 mmHg 74%
    19:00 -1°C° 0 mm 2 mps 648 mmHg 69%
    20:00 -1°C° 0 mm 2 mps 648 mmHg 65%
    21:00 -1°C° 0 mm 2 mps 648 mmHg 60%
    22:00 -1°C° 0 mm 2 mps 648 mmHg 56%
    23:00 -1°C° 0 mm 2 mps 648 mmHg 52%

    17 November, Sunday

    Time Temperature Precipitation Wind Pressure Humidity
    00:00 -1°C° 0 mm 2 mps 648 mmHg 48%
    01:00 -1°C° 0 mm 2 mps 648 mmHg 46%
    02:00 -1°C° 0 mm 2 mps 648 mmHg 45%
    03:00 -1°C° 0 mm 2 mps 647 mmHg 43%
    04:00 -1°C° 0 mm 2 mps 647 mmHg 42%
    05:00 +1°C° 0 mm 1 mps 647 mmHg 42%
    06:00 +1°C° 0 mm 1 mps 647 mmHg 42%
    07:00 +2°C° 0 mm 1 mps 648 mmHg 39%
    08:00 +4°C° 0 mm 1 mps 649 mmHg 36%
    09:00 +5°C° 0 mm 1 mps 649 mmHg 33%
    10:00 +6°C° 0 mm 1 mps 649 mmHg 34%
    11:00 +6°C° 0 mm 2 mps 649 mmHg 34%
    12:00 +7°C° 0 mm 2 mps 650 mmHg 35%
    13:00 +7°C° 0 mm 2 mps 649 mmHg 39%
    14:00 +6°C° 0 mm 2 mps 649 mmHg 43%
    15:00 +7°C° 0 mm 1 mps 649 mmHg 47%
    16:00 +6°C° 0 mm 1 mps 648 mmHg 54%
    17:00 +5°C° 0 mm 1 mps 648 mmHg 62%
    18:00 +3°C° 0 mm 1 mps 648 mmHg 70%
    19:00 +3°C° 0 mm 1 mps 648 mmHg 68%
    20:00 +3°C° 0 mm 1 mps 648 mmHg 67%
    21:00 +3°C° 0 mm 1 mps 648 mmHg 66%
    22:00 +3°C° 0 mm 1 mps 648 mmHg 64%
    23:00 +3°C° 0 mm 1 mps 648 mmHg 63%

    18 November, Monday

    Time Temperature Precipitation Wind Pressure Humidity
    00:00 +3°C° 0 mm 1 mps 647 mmHg 61%
    01:00 +1°C° 0 mm 2 mps 647 mmHg 60%
    02:00 +1°C° 0 mm 2 mps 647 mmHg 59%
    03:00 +1°C° 0 mm 2 mps 647 mmHg 58%
    04:00 +1°C° 0 mm 2 mps 646 mmHg 58%
    05:00 +1°C° 0 mm 2 mps 646 mmHg 58%
    06:00 +1°C° 0 mm 2 mps 646 mmHg 59%
    07:00 +3°C° 0 mm 2 mps 647 mmHg 55%
    08:00 +5°C° 0 mm 1 mps 647 mmHg 51%
    09:00 +7°C° 0 mm 1 mps 648 mmHg 48%
    10:00 +8°C° 0 mm 1 mps 648 mmHg 45%
    11:00 +9°C° 0 mm 1 mps 648 mmHg 41%
    12:00 +10°C° 0 mm 1 mps 648 mmHg 38%
    13:00 +10°C° 0 mm 1 mps 647 mmHg 41%
    14:00 +10°C° 0 mm 1 mps 647 mmHg 45%
    15:00 +10°C° 0 mm 1 mps 647 mmHg 48%
    16:00 +7°C° 0 mm 2 mps 646 mmHg 54%
    17:00 +6°C° 0 mm 2 mps 646 mmHg 59%
    18:00 +4°C° 0 mm 2 mps 645 mmHg 65%
    19:00 +4°C° 0 mm 2 mps 645 mmHg 63%
    20:00 +4°C° 0 mm 2 mps 645 mmHg 61%
    21:00 +4°C° 0 mm 2 mps 644 mmHg 59%
    22:00 +3°C° 0 mm 2 mps 644 mmHg 58%
    23:00 +3°C° 0 mm 2 mps 644 mmHg 57%
    Show more